Dades meteomassalio
Diari Summary for Abril 24, 2017 Units:  Metric    English   Both
« Previous Day
Next Day »
Diari Semanal Mensual Anual Personalitzat
  Maxima: Minima: Mijana:
Temperatura: -17.8 °C -15.6 °C -8.8 °C
Rosada: -17.8 °C -18.8 °C -16.4 °C
Humitat: Humidity % 22 % 43 %
Velocitat del vent: 0 km/h 0 km/h 11.7 km/h
Racha vent: 0 km/h - -
Vent:- - East
Pressio: 0 hPa 34246 hPa -
Pluja: 0 mm    
Historical Graphs
 
 
Tabular Data for Abril 24, 2017
Time Temperature Dew Point Pressure Wind Wind Speed Wind Gust Humidity Rainfall Rate (Hourly) solar Conditions
-17.8 °C -17.8 °C 0 hPa Calm     Humidity % 0 mm SolarRadiationWatts/m^2 W/m2 Conditions
00:01 -11.8 °C -16.3 °C 34442.4 hPa Calm     57 % 0 mm 0.0 W/m2 CLR
00:06 -11.9 °C -16.4 °C 34442.4 hPa Calm     57 % 0 mm 0.0 W/m2 CLR
00:11 -12 °C -16.4 °C 34442.4 hPa Calm     58 % 0 mm 0.0 W/m2 CLR
00:16 -12.2 °C -16.4 °C 34442.4 hPa Calm     59 % 0 mm 0.0 W/m2 CLR
00:26 -12.4 °C -16.5 °C 34442.4 hPa Calm     60 % 0 mm 0.0 W/m2 CLR
00:31 -12.4 °C -16.6 °C 34442.4 hPa Calm     60 % 0 mm 0.0 W/m2 CLR
00:36 -12.4 °C -16.6 °C 34442.4 hPa Calm     60 % 0 mm 0.0 W/m2 CLR
00:41 -12.6 °C -16.7 °C 34442.4 hPa Calm     60 % 0 mm 0.0 W/m2 CLR
00:46 -12.7 °C -16.6 °C 34442.4 hPa Calm     61 % 0 mm 0.0 W/m2 CLR
00:51 -12.8 °C -16.7 °C 34442.4 hPa Calm     61 % 0 mm 0.0 W/m2 CLR
00:56 -12.8 °C -16.7 °C 34442.4 hPa Calm     62 % 0 mm 0.0 W/m2 CLR
01:01 -12.9 °C -16.7 °C 34442.4 hPa Calm     62 % 0 mm 0.0 W/m2 CLR
01:06 -12.9 °C -16.8 °C 34442.4 hPa Calm     62 % 0 mm 0.0 W/m2 CLR
01:11 -13 °C -16.7 °C 34442.4 hPa Calm     63 % 0 mm 0.0 W/m2 CLR
01:16 -13.1 °C -16.8 °C 34442.4 hPa Calm     63 % 0 mm 0.0 W/m2 CLR
01:21 -13 °C -16.8 °C 34442.4 hPa Calm     62 % 0 mm 0.0 W/m2 CLR
01:26 -13.1 °C -16.9 °C 34442.4 hPa Calm     62 % 0 mm 0.0 W/m2 CLR
01:31 -13.1 °C -16.9 °C 34442.4 hPa Calm     62 % 0 mm 0.0 W/m2 CLR
01:36 -13.1 °C -16.9 °C 34442.4 hPa Calm     62 % 0 mm 0.0 W/m2 CLR
01:41 -13.2 °C -16.8 °C 34442.4 hPa Calm     63 % 0 mm 0.0 W/m2 CLR
01:46 -13.2 °C -16.9 °C 34442.4 hPa Calm     63 % 0 mm 0.0 W/m2 CLR
01:56 -13.4 °C -16.9 °C 34442.4 hPa Calm     64 % 0 mm 0.0 W/m2 CLR
02:01 -13.4 °C -17 °C 34442.4 hPa Calm     64 % 0 mm 0.0 W/m2 CLR
02:06 -13.5 °C -17.1 °C 34442.4 hPa Calm     64 % 0 mm 0.0 W/m2 CLR
02:16 -13.7 °C -17.1 °C 34442.4 hPa Calm     65 % 0 mm 0.0 W/m2 CLR
02:21 -13.7 °C -17 °C 34442.4 hPa Calm     66 % 0 mm 0.0 W/m2 CLR
02:26 -13.8 °C -17.1 °C 34442.4 hPa Calm     66 % 0 mm 0.0 W/m2 CLR
02:31 -13.8 °C -17.3 °C 34442.4 hPa Calm     65 % 0 mm 0.0 W/m2 CLR
02:36 -13.8 °C -17.1 °C 34428.8 hPa Calm     66 % 0 mm 0.0 W/m2 CLR
02:41 -13.9 °C -17.2 °C 34428.8 hPa Calm     66 % 0 mm 0.0 W/m2 CLR
02:46 -13.9 °C -17.3 °C 34428.8 hPa SW 11.9 km/h 11.9 km/h 66 % 0 mm 0.0 W/m2 CLR
02:51 -13.9 °C -17.3 °C 34428.8 hPa Calm     65 % 0 mm 0.0 W/m2 CLR
02:57 -13.9 °C -17.3 °C 34428.8 hPa Calm     65 % 0 mm 0.0 W/m2 CLR
03:02 -13.9 °C -17.3 °C 34428.8 hPa Calm     65 % 0 mm 0.0 W/m2 CLR
03:07 -14 °C -17.3 °C 34428.8 hPa Calm     66 % 0 mm 0.0 W/m2 CLR
03:12 -14.1 °C -17.3 °C 34428.8 hPa Calm     66 % 0 mm 0.0 W/m2 CLR
03:17 -14.1 °C -17.3 °C 34428.8 hPa Calm     66 % 0 mm 0.0 W/m2 CLR
03:22 -14.1 °C -17.4 °C 34428.8 hPa Calm     66 % 0 mm 0.0 W/m2 CLR
03:32 -14.3 °C -17.3 °C 34418.7 hPa Calm     68 % 0 mm 0.0 W/m2 CLR
03:37 -14.3 °C -17.4 °C 34418.7 hPa Calm     68 % 0 mm 0.0 W/m2 CLR
03:42 -14.3 °C -17.4 °C 34418.7 hPa Calm     68 % 0 mm 0.0 W/m2 CLR
03:47 -14.4 °C -17.4 °C 34418.7 hPa Calm     68 % 0 mm 0.0 W/m2 CLR
03:52 -14.4 °C -17.4 °C 34418.7 hPa Calm     68 % 0 mm 0.0 W/m2 CLR
03:57 -14.4 °C -17.6 °C 34418.7 hPa Calm     67 % 0 mm 0.0 W/m2 CLR
04:02 -14.4 °C -17.6 °C 34418.7 hPa Calm     67 % 0 mm 0.0 W/m2 CLR
04:07 -14.4 °C -17.4 °C 34418.7 hPa Calm     68 % 0 mm 0.0 W/m2 CLR
04:12 -14.4 °C -17.4 °C 34418.7 hPa Calm     68 % 0 mm 0.0 W/m2 CLR
04:17 -14.5 °C -17.5 °C 34418.7 hPa Calm     68 % 0 mm 0.0 W/m2 CLR
04:22 -14.6 °C -17.6 °C 34418.7 hPa Calm     68 % 0 mm 0.0 W/m2 CLR
04:27 -14.6 °C -17.6 °C 34418.7 hPa Calm     68 % 0 mm 0.0 W/m2 CLR
04:32 -14.6 °C -17.6 °C 34418.7 hPa Calm     68 % 0 mm 0.0 W/m2 CLR
04:37 -14.6 °C -17.6 °C 34418.7 hPa Calm     68 % 0 mm 0.0 W/m2 CLR
04:42 -14.6 °C -17.5 °C 34418.7 hPa Calm     69 % 0 mm 0.0 W/m2 CLR
04:47 -14.5 °C -17.6 °C 34418.7 hPa Calm     68 % 0 mm 0.0 W/m2 CLR
04:52 -14.4 °C -17.4 °C 34418.7 hPa Calm     68 % 0 mm 0.0 W/m2 CLR
04:57 -14.4 °C -17.4 °C 34418.7 hPa Calm     68 % 0 mm 0.0 W/m2 CLR
05:02 -14.6 °C -17.6 °C 34418.7 hPa Calm     68 % 0 mm 0.0 W/m2 CLR
05:07 -14.6 °C -17.6 °C 34418.7 hPa Calm     68 % 0 mm 0.0 W/m2 CLR
05:12 -14.6 °C -17.7 °C 34418.7 hPa Calm     68 % 0 mm 0.0 W/m2 CLR
05:17 -14.7 °C -17.7 °C 34418.7 hPa Calm     68 % 0 mm 0.0 W/m2 CLR
05:22 -14.9 °C -17.9 °C 34418.7 hPa Calm     68 % 0 mm 0.0 W/m2 CLR
05:27 -15 °C -17.9 °C 34418.7 hPa Calm     69 % 0 mm 0.0 W/m2 CLR
05:32 -15 °C -17.8 °C 34418.7 hPa Calm     70 % 0 mm 0.0 W/m2 CLR
05:37 -15.1 °C -17.8 °C 34418.7 hPa Calm     70 % 0 mm 0.0 W/m2 CLR
05:42 -15.1 °C -17.9 °C 34418.7 hPa Calm     70 % 0 mm 0.0 W/m2 CLR
05:47 -15.2 °C -17.9 °C 34418.7 hPa Calm     70 % 0 mm 0.0 W/m2 CLR
05:52 -15.2 °C -17.9 °C 34418.7 hPa Calm     70 % 0 mm 0.0 W/m2 CLR
05:57 -15.2 °C -17.9 °C 34418.7 hPa Calm     70 % 0 mm 0.0 W/m2 CLR
06:02 -15.2 °C -18.2 °C 34418.7 hPa Calm     69 % 0 mm 0.0 W/m2 CLR
06:07 -15.3 °C -18.2 °C 34418.7 hPa Calm     69 % 0 mm 0.0 W/m2 CLR
06:12 -15.3 °C -18.3 °C 34418.7 hPa Calm     68 % 0 mm 0.0 W/m2 CLR
06:17 -15.3 °C -18.3 °C 34418.7 hPa Calm     68 % 0 mm 0.0 W/m2 CLR
06:27 -15.2 °C -18.4 °C 34418.7 hPa Calm     67 % 0 mm 0.0 W/m2 CLR
06:32 -15.3 °C -18.4 °C 34418.7 hPa Calm     67 % 0 mm 0.0 W/m2 CLR
06:37 -15.4 °C -18.4 °C 34428.8 hPa Calm     68 % 0 mm 0.0 W/m2 CLR
06:42 -15.5 °C -18.5 °C 34428.8 hPa Calm     68 % 0 mm 0.0 W/m2 CLR
06:47 -15.5 °C -18.6 °C 34428.8 hPa Calm     67 % 0 mm 0.0 W/m2 CLR
06:52 -15.5 °C -18.5 °C 34428.8 hPa Calm     68 % 0 mm 0.0 W/m2 CLR
06:57 -15.5 °C -18.5 °C 34428.8 hPa Calm     68 % 0 mm 0.0 W/m2 CLR
07:02 -15.6 °C -18.6 °C 34428.8 hPa Calm     68 % 0 mm 0.0 W/m2 OVC
07:07 -15.6 °C -18.7 °C 34428.8 hPa SW 11.9 km/h 11.9 km/h 67 % 0 mm 5.0 W/m2 OVC
07:12 -15.6 °C -18.8 °C 34428.8 hPa SW 9 km/h 9 km/h 66 % 0 mm 7.0 W/m2 BKN
07:17 -15.4 °C -18.7 °C 34428.8 hPa Calm     66 % 0 mm 11.0 W/m2 BKN
07:22 -15.4 °C -18.8 °C 34428.8 hPa Calm     65 % 0 mm 12.0 W/m2 BKN
07:27 -15.4 °C -18.6 °C 34428.8 hPa Calm     66 % 0 mm 16.0 W/m2 BKN
07:32 -15.4 °C -18.7 °C 34442.4 hPa Calm     65 % 0 mm 18.0 W/m2 BKN
07:37 -15.4 °C -18.6 °C 34442.4 hPa Calm     66 % 0 mm 23.0 W/m2 BKN
07:42 -15.3 °C -18.5 °C 34442.4 hPa Calm     66 % 0 mm 32.0 W/m2 BKN
07:47 -15.2 °C -18.5 °C 34442.4 hPa Calm     65 % 0 mm 39.0 W/m2 BKN
07:52 -15.1 °C -18.4 °C 34442.4 hPa Calm     65 % 0 mm 46.0 W/m2 SCT
07:57 -15 °C -18.4 °C 34442.4 hPa Calm     65 % 0 mm 58.0 W/m2 SCT
08:02 -14.9 °C -18.4 °C 34442.4 hPa Calm     64 % 0 mm 79.0 W/m2 FEW
08:07 -14.7 °C -18.3 °C 34442.4 hPa Calm     63 % 0 mm 97.0 W/m2 FEW
08:12 -14.5 °C -18.1 °C 34442.4 hPa Calm     63 % 0 mm 113.0 W/m2 CLR
08:17 -14.3 °C -18.2 °C 34442.4 hPa Calm     61 % 0 mm 134.0 W/m2 CLR
08:22 -14.2 °C -18.1 °C 34442.4 hPa Calm     61 % 0 mm 149.0 W/m2 CLR
08:27 -13.9 °C -17.9 °C 34442.4 hPa Calm     60 % 0 mm 167.0 W/m2 CLR
08:32 -13.7 °C -17.8 °C 34442.4 hPa Calm     59 % 0 mm 186.0 W/m2 CLR
08:37 -13.3 °C -17.7 °C 34442.4 hPa Calm     58 % 0 mm 204.0 W/m2 CLR
08:42 -13 °C -17.4 °C 34442.4 hPa Calm     57 % 0 mm 225.0 W/m2 CLR
08:47 -12.7 °C -17.2 °C 34442.4 hPa Calm     57 % 0 mm 243.0 W/m2 CLR
08:52 -12.3 °C -17.3 °C 34428.8 hPa Calm     54 % 0 mm 258.0 W/m2 CLR
08:57 -12.1 °C -17.3 °C 34428.8 hPa Calm     52 % 0 mm 274.0 W/m2 CLR
09:02 -11.7 °C -17 °C 34428.8 hPa Calm     52 % 0 mm 292.0 W/m2 CLR
09:07 -11.4 °C -17.2 °C 34442.4 hPa Calm     49 % 0 mm 308.0 W/m2 CLR
09:12 -11.2 °C -17 °C 34428.8 hPa Calm     49 % 0 mm 125.0 W/m2 CLR
09:17 -11 °C -17 °C 34428.8 hPa Calm     48 % 0 mm 165.0 W/m2 CLR
09:22 -10.9 °C -17 °C 34428.8 hPa Calm     47 % 0 mm 355.0 W/m2 CLR
09:27 -10.7 °C -16.8 °C 34428.8 hPa Calm     47 % 0 mm 374.0 W/m2 CLR
09:32 -10.4 °C -16.9 °C 34428.8 hPa Calm     45 % 0 mm 388.0 W/m2 CLR
09:37 -10.2 °C -16.9 °C 34428.8 hPa Calm     44 % 0 mm 404.0 W/m2 CLR
09:42 -9.9 °C -17.1 °C 34428.8 hPa Calm     42 % 0 mm 420.0 W/m2 CLR
09:47 -9.7 °C -17 °C 34418.7 hPa Calm     41 % 0 mm 439.0 W/m2 CLR
09:57 -9.2 °C -17.1 °C 34418.7 hPa Calm     38 % 0 mm 471.0 W/m2 CLR
10:02 -8.9 °C -16.9 °C 34418.7 hPa Calm     38 % 0 mm 485.0 W/m2 CLR
10:08 -8.7 °C -16.4 °C 34418.7 hPa Calm     39 % 0 mm 504.0 W/m2 CLR
10:13 -8.3 °C -16.3 °C 34418.7 hPa Calm     38 % 0 mm 519.0 W/m2 CLR
10:14 -8.2 °C -16.3 °C 34418.7 hPa Calm     38 % 0 mm 520.0 W/m2 CLR
10:24 -7.9 °C -16.2 °C 34418.7 hPa Calm     37 % 0 mm 552.0 W/m2 CLR
10:29 -7.8 °C -16.3 °C 34418.7 hPa Calm     36 % 0 mm 566.0 W/m2 CLR
10:34 -7.6 °C -15.9 °C 34405.1 hPa Calm     37 % 0 mm 578.0 W/m2 CLR
10:39 -7.5 °C -16.1 °C 34405.1 hPa NE 11.9 km/h 11.9 km/h 36 % 0 mm 592.0 W/m2 CLR
10:44 -7.3 °C -15.9 °C 34405.1 hPa NNE 9 km/h   36 % 0 mm 610.0 W/m2 CLR
10:49 -7.2 °C -16 °C 34405.1 hPa NE 9 km/h 9 km/h 35 % 0 mm 622.0 W/m2 CLR
10:54 -7.2 °C -15.7 °C 34405.1 hPa NE 15 km/h 15 km/h 36 % 0 mm 638.0 W/m2 CLR
10:59 -7.1 °C -15.6 °C 34405.1 hPa NE 11.9 km/h 11.9 km/h 36 % 0 mm 647.0 W/m2 CLR
11:04 -7.1 °C -15.6 °C 34405.1 hPa NNE 9 km/h 9 km/h 36 % 0 mm 661.0 W/m2 CLR
11:09 -7 °C -15.4 °C 34405.1 hPa NE 12.9 km/h 12.9 km/h 37 % 0 mm 675.0 W/m2 CLR
11:14 -6.8 °C -15 °C 34405.1 hPa NE 9 km/h 9 km/h 38 % 0 mm 686.0 W/m2 CLR
11:19 -6.6 °C -15.1 °C 34405.1 hPa ENE 17.9 km/h 17.9 km/h 37 % 0 mm 698.0 W/m2 CLR
11:24 -6.5 °C -15.2 °C 34395 hPa ENE 17.9 km/h 17.9 km/h 36 % 0 mm 708.0 W/m2 CLR
11:29 -6.4 °C -15.6 °C 34395 hPa NE 15 km/h 15 km/h 34 % 0 mm 722.0 W/m2 CLR
11:34 -6.3 °C -15.5 °C 34395 hPa ENE 20.8 km/h 20.8 km/h 34 % 0 mm 733.0 W/m2 CLR
11:39 -6.2 °C -15.6 °C 34395 hPa NE 15 km/h 15 km/h 33 % 0 mm 747.0 W/m2 CLR
11:44 -6.1 °C -15.4 °C 34395 hPa NE 17.9 km/h 17.9 km/h 33 % 0 mm 758.0 W/m2 CLR
11:45 -6.1 °C -15.4 °C 34395 hPa NE 17.9 km/h 17.9 km/h 33 % 0 mm 759.0 W/m2 CLR
11:50 -6 °C -15.7 °C 34395 hPa NE 18.2 km/h 18.2 km/h 32 % 0 mm 768.0 W/m2 CLR
11:55 -5.9 °C -15.6 °C 34395 hPa NE 11.9 km/h 11.9 km/h 32 % 0 mm 777.0 W/m2 CLR
12:00 -5.7 °C -15.6 °C 34395 hPa NE 18.2 km/h 18.2 km/h 31 % 0 mm 788.0 W/m2 CLR
12:05 -5.4 °C -15.2 °C 34384.8 hPa North 9 km/h 9 km/h 32 % 0 mm 800.0 W/m2 CLR
12:10 -5.4 °C -15.2 °C 34384.8 hPa ENE 15 km/h 15 km/h 32 % 0 mm 810.0 W/m2 CLR
12:15 -5.4 °C -15.7 °C 34384.8 hPa ENE 17.9 km/h 17.9 km/h 30 % 0 mm 819.0 W/m2 CLR
12:20 -5.3 °C -14.8 °C 34384.8 hPa East 17.9 km/h 17.9 km/h 33 % 0 mm 826.0 W/m2 CLR
12:25 -5.1 °C -14.9 °C 34384.8 hPa NE 12.9 km/h 12.9 km/h 32 % 0 mm 833.0 W/m2 CLR
12:30 -5.1 °C -15.7 °C 34384.8 hPa ENE 29.8 km/h 29.8 km/h 29 % 0 mm 844.0 W/m2 CLR
12:35 -5.1 °C -16.2 °C 34384.8 hPa ENE 17.9 km/h 17.9 km/h 27 % 0 mm 849.0 W/m2 CLR
12:40 -5.1 °C -15.6 °C 34371.3 hPa NNE 11.9 km/h 11.9 km/h 29 % 0 mm 851.0 W/m2 CLR
12:45 -4.8 °C -15.4 °C 34371.3 hPa ENE 20.8 km/h 20.8 km/h 29 % 0 mm 860.0 W/m2 CLR
12:50 -4.8 °C -15.9 °C 34371.3 hPa NE 15 km/h 15 km/h 27 % 0 mm 867.0 W/m2 CLR
12:55 -4.6 °C -15.4 °C 34371.3 hPa NE 17.9 km/h 17.9 km/h 28 % 0 mm 870.0 W/m2 CLR
13:00 -4.4 °C -15.4 °C 34361.1 hPa NE 9 km/h 9 km/h 28 % 0 mm 874.0 W/m2 CLR
13:05 -4.5 °C -15.7 °C 34361.1 hPa ENE 20.8 km/h 20.8 km/h 27 % 0 mm 881.0 W/m2 CLR
13:10 -4.5 °C -15.7 °C 34361.1 hPa NE 23.8 km/h 23.8 km/h 27 % 0 mm 881.0 W/m2 CLR
13:15 -4.4 °C -15.7 °C 34361.1 hPa NNE 15 km/h 15 km/h 27 % 0 mm 884.0 W/m2 CLR
13:20 -4.3 °C -15.2 °C 34347.6 hPa NNW 9 km/h 9 km/h 28 % 0 mm 888.0 W/m2 CLR
13:25 -4.2 °C -15.4 °C 34347.6 hPa NE 23.8 km/h 23.8 km/h 27 % 0 mm 889.0 W/m2 CLR
13:30 -4.1 °C -15.7 °C 34347.6 hPa Calm     26 % 0 mm 891.0 W/m2 CLR
13:35 -4 °C -15.3 °C 34347.6 hPa Calm     27 % 0 mm 895.0 W/m2 CLR
13:40 -3.9 °C -15.5 °C 34337.4 hPa ESE 15 km/h 15 km/h 26 % 0 mm 896.0 W/m2 CLR
13:45 -4 °C -15.6 °C 34337.4 hPa NE 7.7 km/h 7.7 km/h 26 % 0 mm 893.0 W/m2 CLR
13:55 -3.8 °C -15.7 °C 34327.3 hPa NE 15.6 km/h 15.6 km/h 25 % 0 mm 896.0 W/m2 CLR
14:00 -3.8 °C -15.4 °C 34327.3 hPa NE 12.9 km/h 12.9 km/h 26 % 0 mm 893.0 W/m2 CLR
14:05 -3.7 °C -15 °C 34327.3 hPa Calm     27 % 0 mm 891.0 W/m2 CLR
14:10 -3.5 °C -14.8 °C 34313.7 hPa NNE 12.9 km/h 12.9 km/h 27 % 0 mm 893.0 W/m2 CLR
14:15 -3.6 °C -14.9 °C 34313.7 hPa ENE 15 km/h 15 km/h 27 % 0 mm 891.0 W/m2 CLR
14:25 -3.2 °C -14.3 °C 34313.7 hPa ENE 26.9 km/h 26.9 km/h 28 % 0 mm 884.0 W/m2 CLR
14:30 -3.2 °C -14.3 °C 34313.7 hPa ENE 6 km/h 6 km/h 28 % 0 mm 881.0 W/m2 CLR
14:35 -3.1 °C -14.2 °C 34303.6 hPa ENE 7.7 km/h 7.7 km/h 28 % 0 mm 882.0 W/m2 CLR
14:40 -2.9 °C -14.1 °C 34303.6 hPa NE 23.8 km/h 23.8 km/h 28 % 0 mm 877.0 W/m2 CLR
14:45 -2.9 °C -14 °C 34303.6 hPa ESE 15 km/h 15 km/h 28 % 0 mm 875.0 W/m2 CLR
14:50 -3.1 °C -14.5 °C 34303.6 hPa NE 29.8 km/h 29.8 km/h 27 % 0 mm 870.0 W/m2 CLR
14:55 -3.2 °C -14.3 °C 34293.4 hPa NNE 17.9 km/h 17.9 km/h 28 % 0 mm 870.0 W/m2 CLR
15:00 -3.1 °C -14.2 °C 34293.4 hPa ENE 29.8 km/h 29.8 km/h 28 % 0 mm 860.0 W/m2 CLR
15:05 -3.1 °C -14.2 °C 34293.4 hPa NE 15.6 km/h 15.6 km/h 28 % 0 mm 856.0 W/m2 CLR
15:10 -2.9 °C -14.1 °C 34293.4 hPa ENE 23.8 km/h 23.8 km/h 28 % 0 mm 838.0 W/m2 CLR
15:15 -3 °C -14.4 °C 34293.4 hPa East 26.9 km/h 26.9 km/h 27 % 0 mm 842.0 W/m2 CLR
15:20 -3.1 °C -14.5 °C 34293.4 hPa ENE 18.2 km/h 18.2 km/h 27 % 0 mm 840.0 W/m2 CLR
15:25 -3.1 °C -14.2 °C 34279.9 hPa ENE 29.8 km/h 29.8 km/h 28 % 0 mm 842.0 W/m2 CLR
15:30 -2.9 °C -14.1 °C 34279.9 hPa NE 23.8 km/h 23.8 km/h 28 % 0 mm 840.0 W/m2 CLR
15:36 -2.9 °C -14.3 °C 34279.9 hPa NE 29.8 km/h 29.8 km/h 27 % 0 mm 814.0 W/m2 CLR
15:41 -2.7 °C -13.9 °C 34279.9 hPa NNE 29.8 km/h 29.8 km/h 28 % 0 mm 810.0 W/m2 CLR
15:46 -2.7 °C -15.8 °C 34279.9 hPa East 32.8 km/h 32.8 km/h 22 % 0 mm 807.0 W/m2 CLR
15:51 -2.8 °C -15.5 °C 34269.7 hPa ESE 35.7 km/h 35.7 km/h 23 % 0 mm 800.0 W/m2 CLR
15:56 -2.7 °C -15.1 °C 34269.7 hPa ESE 35.7 km/h 35.7 km/h 24 % 0 mm 788.0 W/m2 CLR
16:01 -2.6 °C -15.7 °C 34269.7 hPa SE 41.7 km/h 41.7 km/h 22 % 0 mm 786.0 W/m2 CLR
16:06 -2.6 °C -15.7 °C 34269.7 hPa ESE 50.7 km/h 50.7 km/h 22 % 0 mm 777.0 W/m2 CLR
16:11 -2.9 °C -15.2 °C 34269.7 hPa ESE 44.1 km/h 44.1 km/h 24 % 0 mm 770.0 W/m2 CLR
16:16 -2.8 °C -15.2 °C 34269.7 hPa SSE 29.8 km/h 29.8 km/h 24 % 0 mm 766.0 W/m2 CLR
16:21 -2.9 °C -15.9 °C 34269.7 hPa SE 44.7 km/h 44.7 km/h 22 % 0 mm 744.0 W/m2 CLR
16:26 -3 °C -15.7 °C 34256.2 hPa SE 38.8 km/h 38.8 km/h 23 % 0 mm 687.0 W/m2 CLR
16:31 -3 °C -15.3 °C 34256.2 hPa ESE 41.7 km/h 41.7 km/h 24 % 0 mm 714.0 W/m2 CLR
16:36 -3.1 °C -16.1 °C 34256.2 hPa SE 50.7 km/h 50.7 km/h 22 % 0 mm 738.0 W/m2 CLR
16:41 -3.1 °C -15.1 °C 34256.2 hPa ESE 41.7 km/h 41.7 km/h 25 % 0 mm 717.0 W/m2 CLR
16:46 -3.1 °C -15.1 °C 34256.2 hPa ESE 41.7 km/h 41.7 km/h 25 % 0 mm 712.0 W/m2 CLR
16:51 -3.2 °C -15.5 °C 34256.2 hPa SE 47.6 km/h 47.6 km/h 24 % 0 mm 694.0 W/m2 CLR
16:57 -3.3 °C -15.3 °C 34256.2 hPa SE 50.7 km/h 50.7 km/h 25 % 0 mm 689.0 W/m2 CLR
17:01 -3.5 °C -15.4 °C 34256.2 hPa SE 50.7 km/h 50.7 km/h 25 % 0 mm 687.0 W/m2 CLR
17:06 -3.5 °C -15.2 °C 34256.2 hPa ESE 35.7 km/h 36.7 km/h 26 % 0 mm 677.0 W/m2 CLR
17:11 -3.6 °C -15.5 °C 34256.2 hPa SE 38.8 km/h 38.8 km/h 25 % 0 mm 663.0 W/m2 CLR
17:17 -3.8 °C -15.4 °C 34246 hPa SSE 47.6 km/h 47.6 km/h 26 % 0 mm 643.0 W/m2 CLR
17:27 -3.8 °C -15.7 °C 34246 hPa SSE 50.7 km/h 50.7 km/h 25 % 0 mm 617.0 W/m2 CLR
17:32 -3.8 °C -15.7 °C 34246 hPa SE 44.7 km/h 44.7 km/h 25 % 0 mm 605.0 W/m2 CLR
17:37 -3.8 °C -15.4 °C 34256.2 hPa ENE 38.8 km/h 38.8 km/h 26 % 0 mm 619.0 W/m2 CLR
17:42 -3.8 °C -15.7 °C 34256.2 hPa ENE 35.7 km/h 35.7 km/h 25 % 0 mm 610.0 W/m2 CLR
17:47 -3.8 °C -15.7 °C 34256.2 hPa ENE 44.7 km/h 44.7 km/h 25 % 0 mm 598.0 W/m2 CLR
17:52 -3.9 °C -15.8 °C 34256.2 hPa ENE 44.7 km/h 44.7 km/h 25 % 0 mm 566.0 W/m2 CLR
17:57 -4 °C -15.6 °C 34256.2 hPa ENE 38.8 km/h 38.8 km/h 26 % 0 mm 520.0 W/m2 CLR
18:02 -4 °C -15.6 °C 34256.2 hPa ENE 33.6 km/h 33.6 km/h 26 % 0 mm 475.0 W/m2 CLR
18:08 -4.1 °C -15.7 °C 34246 hPa ENE 35.7 km/h 35.7 km/h 26 % 0 mm 454.0 W/m2 CLR
18:13 -4.1 °C -15.7 °C 34246 hPa ENE 38.8 km/h 38.8 km/h 26 % 0 mm 427.0 W/m2 CLR
18:18 -4.1 °C -15.4 °C 34256.2 hPa ENE 29.8 km/h 29.8 km/h 27 % 0 mm 413.0 W/m2 CLR
18:23 -4.1 °C -15.7 °C 34256.2 hPa ENE 38.8 km/h 38.8 km/h 26 % 0 mm 381.0 W/m2 CLR
18:27 -4.2 °C -15.4 °C 34256.2 hPa ENE 31.1 km/h 31.1 km/h 27 % 0 mm 378.0 W/m2 CLR
18:33 -4.2 °C -15.4 °C 34256.2 hPa ENE 38.8 km/h 38.8 km/h 27 % 0 mm 362.0 W/m2 CLR
18:38 -4.3 °C -15.6 °C 34256.2 hPa ENE 32.8 km/h 32.8 km/h 27 % 0 mm 350.0 W/m2 CLR
18:43 -4.3 °C -15.2 °C 34256.2 hPa ENE 29.8 km/h 29.8 km/h 28 % 0 mm 334.0 W/m2 CLR
18:48 -4.3 °C -15.3 °C 34256.2 hPa ENE 28.5 km/h 28.5 km/h 28 % 0 mm 316.0 W/m2 CLR
18:53 -4.4 °C -15.1 °C 34256.2 hPa ENE 23.3 km/h 23.3 km/h 29 % 0 mm 302.0 W/m2 CLR
18:58 -4.5 °C -15.1 °C 34256.2 hPa ENE 32.8 km/h 32.8 km/h 29 % 0 mm 285.0 W/m2 CLR
19:03 -4.6 °C -15.2 °C 34256.2 hPa ENE 23.8 km/h 23.8 km/h 29 % 0 mm 274.0 W/m2 CLR
19:08 -4.6 °C -15.2 °C 34256.2 hPa ENE 29.8 km/h 29.8 km/h 29 % 0 mm 262.0 W/m2 CLR
19:13 -4.6 °C -15.2 °C 34256.2 hPa ENE 26.9 km/h 26.9 km/h 29 % 0 mm 241.0 W/m2 CLR
19:18 -4.7 °C -15 °C 34256.2 hPa ENE 35.7 km/h 35.7 km/h 30 % 0 mm 216.0 W/m2 CLR
19:23 -4.8 °C -14.9 °C 34256.2 hPa ENE 29.8 km/h 29.8 km/h 31 % 0 mm 197.0 W/m2 CLR
19:28 -4.9 °C -15.2 °C 34256.2 hPa ENE 29.8 km/h 29.8 km/h 30 % 0 mm 176.0 W/m2 CLR
19:33 -5.1 °C -15.1 °C 34256.2 hPa ENE 35.7 km/h 35.7 km/h 31 % 0 mm 158.0 W/m2 CLR
19:38 -5.1 °C -15.1 °C 34256.2 hPa ENE 29.8 km/h 29.8 km/h 31 % 0 mm 141.0 W/m2 CLR
19:43 -5.2 °C -15.2 °C 34256.2 hPa ENE 29.8 km/h 29.8 km/h 31 % 0 mm 121.0 W/m2 CLR
19:48 -5.2 °C -15.2 °C 34256.2 hPa ENE 26.9 km/h 26.9 km/h 31 % 0 mm 105.0 W/m2 CLR
19:53 -5.2 °C -15.4 °C 34246 hPa ENE 26.9 km/h 26.9 km/h 30 % 0 mm 91.0 W/m2 CLR
19:58 -5.2 °C -15.8 °C 34256.2 hPa ENE 23.8 km/h 23.8 km/h 29 % 0 mm 37.0 W/m2 BKN
20:03 -5.3 °C -15.6 °C 34256.2 hPa ENE 23.3 km/h 23.3 km/h 30 % 0 mm 62.0 W/m2 SCT
20:08 -5.3 °C -16.1 °C 34256.2 hPa ENE 29.8 km/h 29.8 km/h 28 % 0 mm 47.0 W/m2 SCT
20:13 -5.3 °C -17 °C 34256.2 hPa ENE 23.8 km/h 23.8 km/h 25 % 0 mm 40.0 W/m2 BKN
20:18 -5.4 °C -16.4 °C 34256.2 hPa ENE 9 km/h 9 km/h 27 % 0 mm 30.0 W/m2 BKN
20:23 -5.5 °C -16.3 °C 34256.2 hPa ENE 11.9 km/h 11.9 km/h 28 % 0 mm 21.0 W/m2 BKN
20:28 -5.7 °C -15.9 °C 34256.2 hPa ENE 18.2 km/h 18.2 km/h 30 % 0 mm 19.0 W/m2 BKN
20:33 -5.8 °C -16.2 °C 34256.2 hPa ENE 9 km/h 9 km/h 29 % 0 mm 16.0 W/m2 BKN
20:38 -5.8 °C -17.1 °C 34256.2 hPa ENE 10.3 km/h 10.3 km/h 26 % 0 mm 12.0 W/m2 BKN
20:43 -5.8 °C -17.1 °C 34256.2 hPa SSE 20.9 km/h 20.9 km/h 26 % 0 mm 7.0 W/m2 BKN
20:48 -5.9 °C -17.2 °C 34256.2 hPa SE 9 km/h 9 km/h 26 % 0 mm 0.0 W/m2 OVC
20:53 -5.9 °C -16.9 °C 34269.7 hPa SE 9 km/h 9 km/h 27 % 0 mm 0.0 W/m2 OVC
20:58 -6.1 °C -17 °C 34269.7 hPa SSE 17.9 km/h 17.9 km/h 27 % 0 mm 0.0 W/m2 OVC
21:03 -6.2 °C -17.1 °C 34269.7 hPa SSE 17.9 km/h 17.9 km/h 27 % 0 mm 0.0 W/m2 CLR
21:08 -6.3 °C -16.9 °C 34269.7 hPa SE 18.2 km/h 18.2 km/h 28 % 0 mm 0.0 W/m2 CLR
21:13 -6.3 °C -17 °C 34269.7 hPa SSE 20.9 km/h 20.9 km/h 28 % 0 mm 0.0 W/m2 CLR
21:18 -6.4 °C -17.1 °C 34269.7 hPa SE 15.6 km/h 15.6 km/h 28 % 0 mm 0.0 W/m2 CLR
21:23 -6.5 °C -17.1 °C 34269.7 hPa SE 17.9 km/h 17.9 km/h 28 % 0 mm 0.0 W/m2 CLR
21:28 -6.6 °C -17.2 °C 34269.7 hPa SE 20.9 km/h 20.9 km/h 28 % 0 mm 0.0 W/m2 CLR
21:33 -6.6 °C -17.2 °C 34269.7 hPa SE 18.2 km/h 18.2 km/h 28 % 0 mm 0.0 W/m2 CLR
21:38 -6.7 °C -17.3 °C 34269.7 hPa SSE 20.9 km/h 20.9 km/h 28 % 0 mm 0.0 W/m2 CLR
21:43 -6.8 °C -17.3 °C 34269.7 hPa SSE 17.9 km/h 17.9 km/h 28 % 0 mm 0.0 W/m2 CLR
21:48 -6.8 °C -17.4 °C 34269.7 hPa SE 17.9 km/h 17.9 km/h 28 % 0 mm 0.0 W/m2 CLR
21:53 -6.8 °C -17.4 °C 34269.7 hPa Calm   0.5 km/h 28 % 0 mm 0.0 W/m2 CLR
21:58 -6.9 °C -17.7 °C 34269.7 hPa SE 6 km/h 6 km/h 27 % 0 mm 0.0 W/m2 CLR
22:03 -6.9 °C -17.7 °C 34279.9 hPa SSE 9 km/h 9 km/h 27 % 0 mm 0.0 W/m2 CLR
22:08 -6.9 °C -18.1 °C 34269.7 hPa Calm     26 % 0 mm 0.0 W/m2 CLR
22:13 -6.9 °C -18.1 °C 34279.9 hPa SE 9 km/h 9 km/h 26 % 0 mm 0.0 W/m2 CLR
22:18 -7 °C -18.1 °C 34279.9 hPa East 9 km/h 9 km/h 26 % 0 mm 0.0 W/m2 CLR
22:23 -7.1 °C -17.6 °C 34269.7 hPa Calm     28 % 0 mm 0.0 W/m2 CLR
22:28 -7.3 °C -17.8 °C 34279.9 hPa Calm     28 % 0 mm 0.0 W/m2 CLR
22:33 -7.3 °C -17.8 °C 34279.9 hPa Calm     28 % 0 mm 0.0 W/m2 CLR
22:38 -7.4 °C -17.9 °C 34279.9 hPa ENE 6 km/h   28 % 0 mm 0.0 W/m2 CLR
22:43 -7.4 °C -17.4 °C 34279.9 hPa Calm     30 % 0 mm 0.0 W/m2 CLR
22:48 -7.6 °C -17.6 °C 34279.9 hPa Calm     30 % 0 mm 0.0 W/m2 CLR
22:53 -7.8 °C -16.1 °C 34279.9 hPa Calm     37 % 0 mm 0.0 W/m2 CLR
22:59 -8 °C -16.3 °C 34279.9 hPa Calm     37 % 0 mm 0.0 W/m2 CLR
23:04 -8 °C -15.9 °C 34293.4 hPa Calm     39 % 0 mm 0.0 W/m2 CLR
23:09 -8.1 °C -15.7 °C 34293.4 hPa Calm     40 % 0 mm 0.0 W/m2 CLR
23:14 -8.2 °C -15.4 °C 34293.4 hPa Calm     42 % 0 mm 0.0 W/m2 CLR
23:19 -8.4 °C -15.1 °C 34293.4 hPa Calm     45 % 0 mm 0.0 W/m2 CLR
23:24 -8.6 °C -14.6 °C 34293.4 hPa Calm     49 % 0 mm 0.0 W/m2 CLR
23:39 -8.8 °C -14.8 °C 34279.9 hPa Calm     49 % 0 mm 0.0 W/m2 CLR
23:44 -8.8 °C -14.6 °C 34279.9 hPa Calm     50 % 0 mm 0.0 W/m2 CLR
23:49 -8.8 °C -14.6 °C 34279.9 hPa Calm     50 % 0 mm 0.0 W/m2 CLR
23:54 -8.8 °C -14.6 °C 34279.9 hPa NE 6 km/h 6 km/h 50 % 0 mm 0.0 W/m2 CLR
23:59 -8.8 °C -14.5 °C 34279.9 hPa ENE 9 km/h 9 km/h 51 % 0 mm 0.0 W/m2 CLR
Lo Temps de Massalio
Compliments of Weather Underground - 1.25 mb